Time,TemperatureF,DewpointF,PressureIn,WindDirection,WindDirectionDegrees,WindSpeedMPH,WindSpeedGustMPH,Humidity,HourlyPrecipIn,Conditions,Clouds,dailyrainin,SoftwareType,DateUTC
2013-03-02 00:02:00,8.0,-99.9,-100.00,NW,315,0.0,1.0,-999,0.00,,,0.00,,2013-03-02 06:02:00,
2013-03-02 00:11:00,8.0,-99.9,-100.00,NW,315,0.0,1.0,-999,0.00,,,0.00,,2013-03-02 06:11:00,
2013-03-02 00:22:00,9.0,-99.9,-100.00,NW,315,0.0,1.0,-999,0.00,,,0.00,,2013-03-02 06:22:00,
2013-03-02 00:32:00,9.0,-99.9,-100.00,NW,315,0.0,1.0,-999,0.00,,,0.00,,2013-03-02 06:32:00,
2013-03-02 00:42:00,9.0,-99.9,-100.00,NW,315,0.0,1.0,-999,0.00,,,0.00,,2013-03-02 06:42:00,
2013-03-02 00:52:00,9.0,-99.9,-100.00,NW,315,0.0,2.0,-999,0.00,,,0.00,,2013-03-02 06:52:00,
2013-03-02 01:02:00,9.0,-99.9,-100.00,NNW,338,0.0,1.0,-999,0.00,,,0.00,,2013-03-02 07:02:00,
2013-03-02 01:11:00,9.0,-99.9,-100.00,NNE,23,0.0,3.0,-999,0.00,,,0.00,,2013-03-02 07:11:00,
2013-03-02 01:22:00,9.0,-99.9,-100.00,NNE,23,0.0,3.0,-999,0.00,,,0.00,,2013-03-02 07:22:00,
2013-03-02 01:32:00,9.0,-99.9,-100.00,NNE,23,0.0,2.0,-999,0.00,,,0.00,,2013-03-02 07:32:00,
2013-03-02 01:42:00,9.0,-99.9,-100.00,NNE,23,0.0,2.0,-999,0.00,,,0.00,,2013-03-02 07:42:00,
2013-03-02 01:52:00,9.0,-99.9,-100.00,NNE,23,0.0,1.0,-999,0.00,,,0.00,,2013-03-02 07:52:00,
2013-03-02 02:01:00,8.0,-99.9,-100.00,NNE,23,0.0,1.0,-999,0.00,,,0.00,,2013-03-02 08:01:00,
2013-03-02 02:11:00,8.0,-99.9,-100.00,NNE,23,0.0,1.0,-999,0.00,,,0.00,,2013-03-02 08:11:00,
2013-03-02 02:22:00,8.0,-99.9,-100.00,NNE,23,0.0,0.0,-999,0.00,,,0.00,,2013-03-02 08:22:00,
2013-03-02 02:32:00,7.0,-99.9,-100.00,NNE,23,0.0,1.0,-999,0.00,,,0.00,,2013-03-02 08:32:00,
2013-03-02 02:43:00,7.0,-99.9,-100.00,NNE,23,0.0,1.0,-999,0.00,,,0.00,,2013-03-02 08:43:00,
2013-03-02 02:52:00,6.0,-99.9,-100.00,NNE,23,0.0,1.0,-999,0.00,,,0.00,,2013-03-02 08:52:00,
2013-03-02 03:02:00,4.0,-99.9,-100.00,NNE,23,0.0,1.0,-999,0.00,,,0.00,,2013-03-02 09:02:00,
2013-03-02 03:11:00,3.0,-99.9,-100.00,NNE,23,0.0,1.0,-999,0.00,,,0.00,,2013-03-02 09:11:00,
2013-03-02 03:22:00,3.0,-99.9,-100.00,NNE,23,0.0,1.0,-999,0.00,,,0.00,,2013-03-02 09:22:00,
2013-03-02 03:32:00,2.0,-99.9,-100.00,NNE,23,1.0,2.0,-999,0.00,,,0.00,,2013-03-02 09:32:00,
2013-03-02 03:42:00,2.0,-99.9,-100.00,NNE,23,1.0,2.0,-999,0.00,,,0.00,,2013-03-02 09:42:00,
2013-03-02 03:52:00,2.0,-99.9,-100.00,NNE,23,1.0,2.0,-999,0.00,,,0.00,,2013-03-02 09:52:00,
2013-03-02 04:02:00,2.0,-99.9,-100.00,NNE,23,0.0,2.0,-999,0.00,,,0.00,,2013-03-02 10:02:00,
2013-03-02 04:16:00,2.0,-99.9,-100.00,NNE,23,0.0,2.0,-999,0.00,,,0.00,,2013-03-02 10:16:00,
2013-03-02 04:22:00,2.0,-99.9,-100.00,NNE,23,0.0,2.0,-999,0.00,,,0.00,,2013-03-02 10:22:00,
2013-03-02 04:32:00,2.0,-99.9,-100.00,NNE,23,0.0,1.0,-999,0.00,,,0.00,,2013-03-02 10:32:00,
2013-03-02 04:43:00,2.0,-99.9,-100.00,NNE,23,0.0,1.0,-999,0.00,,,0.00,,2013-03-02 10:43:00,
2013-03-02 04:52:00,2.0,-99.9,-100.00,NNE,23,0.0,0.0,-999,0.00,,,0.00,,2013-03-02 10:52:00,
2013-03-02 05:01:00,2.0,-99.9,-100.00,NNE,23,0.0,1.0,-999,0.00,,,0.00,,2013-03-02 11:01:00,
2013-03-02 05:11:00,2.0,-99.9,-100.00,NNE,23,0.0,1.0,-999,0.00,,,0.00,,2013-03-02 11:11:00,
2013-03-02 05:22:00,1.0,-99.9,-100.00,NNE,23,0.0,1.0,-999,0.00,,,0.00,,2013-03-02 11:22:00,
2013-03-02 05:52:00,-1.0,-99.9,-100.00,NNE,23,0.0,0.0,-999,0.00,,,0.00,,2013-03-02 11:52:00,
2013-03-02 06:02:00,-1.0,-99.9,-100.00,NNE,23,0.0,1.0,-999,0.00,,,0.00,,2013-03-02 12:02:00,
2013-03-02 06:11:00,-1.0,-99.9,-100.00,NNE,23,0.0,1.0,-999,0.00,,,0.00,,2013-03-02 12:11:00,
2013-03-02 06:22:00,-2.0,-99.9,-100.00,NNE,23,0.0,1.0,-999,0.00,,,0.00,,2013-03-02 12:22:00,
2013-03-02 06:33:00,-2.0,-99.9,-100.00,NNE,23,0.0,1.0,-999,0.00,,,0.00,,2013-03-02 12:33:00,
2013-03-02 06:43:00,-2.0,-99.9,-100.00,NNE,23,0.0,1.0,-999,0.00,,,0.00,,2013-03-02 12:43:00,
2013-03-02 06:53:00,-3.0,-99.9,-100.00,NNE,23,0.0,1.0,-999,0.00,,,0.00,,2013-03-02 12:53:00,
2013-03-02 07:02:00,-4.0,-99.9,-100.00,NNE,23,0.0,0.0,-999,0.00,,,0.00,,2013-03-02 13:02:00,
2013-03-02 07:12:00,-4.0,-99.9,-100.00,NNE,23,0.0,0.0,-999,0.00,,,0.00,,2013-03-02 13:12:00,
2013-03-02 07:22:00,-4.0,-99.9,-100.00,NNE,23,0.0,0.0,-999,0.00,,,0.00,,2013-03-02 13:22:00,
2013-03-02 07:32:00,-4.0,-99.9,-100.00,NNE,23,0.0,1.0,-999,0.00,,,0.00,,2013-03-02 13:32:00,
2013-03-02 07:42:00,-4.0,-99.9,-100.00,NNE,23,0.0,1.0,-999,0.00,,,0.00,,2013-03-02 13:42:00,
2013-03-02 07:53:00,-3.0,-99.9,-100.00,NNE,23,0.0,0.0,-999,0.00,,,0.00,,2013-03-02 13:53:00,
2013-03-02 08:01:00,-1.0,-99.9,-100.00,NNE,23,0.0,0.0,-999,0.00,,,0.00,,2013-03-02 14:01:00,
2013-03-02 08:11:00,-1.0,-99.9,-100.00,NNE,23,0.0,0.0,-999,0.00,,,0.00,,2013-03-02 14:11:00,
2013-03-02 08:22:00,1.0,-99.9,-100.00,NNE,23,0.0,1.0,-999,0.00,,,0.00,,2013-03-02 14:22:00,
2013-03-02 08:32:00,8.0,-99.9,-100.00,North,0,1.0,5.0,-999,0.00,,,0.00,,2013-03-02 14:32:00,
2013-03-02 08:42:00,8.0,-99.9,-100.00,North,0,1.0,5.0,-999,0.00,,,0.00,,2013-03-02 14:42:00,
2013-03-02 08:52:00,10.0,-99.9,-100.00,North,0,3.0,8.0,-999,0.00,,,0.00,,2013-03-02 14:52:00,
2013-03-02 09:02:00,12.0,-99.9,-100.00,North,0,3.0,8.0,-999,0.00,,,0.00,,2013-03-02 15:02:00,
2013-03-02 09:12:00,12.0,-99.9,-100.00,North,0,3.0,8.0,-999,0.00,,,0.00,,2013-03-02 15:12:00,
2013-03-02 09:22:00,14.0,-99.9,-100.00,NNE,23,6.0,10.0,-999,0.00,,,0.00,,2013-03-02 15:22:00,
2013-03-02 09:32:00,15.0,-99.9,-100.00,North,0,5.0,12.0,-999,0.00,,,0.00,,2013-03-02 15:32:00,
2013-03-02 09:42:00,15.0,-99.9,-100.00,North,0,5.0,12.0,-999,0.00,,,0.00,,2013-03-02 15:42:00,
2013-03-02 09:52:00,16.0,-99.9,-100.00,North,0,2.0,13.0,-999,0.00,,,0.00,,2013-03-02 15:52:00,
2013-03-02 10:02:00,17.0,-99.9,-100.00,North,0,5.0,12.0,-999,0.00,,,0.00,,2013-03-02 16:02:00,
2013-03-02 10:12:00,17.0,-99.9,-100.00,North,0,5.0,12.0,-999,0.00,,,0.00,,2013-03-02 16:12:00,
2013-03-02 10:22:00,18.0,-99.9,-100.00,North,0,8.0,13.0,-999,0.00,,,0.00,,2013-03-02 16:22:00,
2013-03-02 10:32:00,18.0,-99.9,-100.00,NNE,23,6.0,15.0,-999,0.00,,,0.00,,2013-03-02 16:32:00,
2013-03-02 10:42:00,18.0,-99.9,-100.00,NNE,23,6.0,15.0,-999,0.00,,,0.00,,2013-03-02 16:42:00,
2013-03-02 10:52:00,19.0,-99.9,-100.00,North,0,2.0,12.0,-999,0.00,,,0.00,,2013-03-02 16:52:00,
2013-03-02 11:01:00,19.0,-99.9,-100.00,North,0,6.0,12.0,-999,0.00,,,0.00,,2013-03-02 17:01:00,
2013-03-02 11:12:00,19.0,-99.9,-100.00,North,0,6.0,12.0,-999,0.00,,,0.00,,2013-03-02 17:12:00,
2013-03-02 11:22:00,20.0,-99.9,-100.00,North,0,2.0,10.0,-999,0.00,,,0.00,,2013-03-02 17:22:00,
2013-03-02 11:32:00,22.0,-99.9,-100.00,NNW,338,1.0,8.0,-999,0.00,,,0.00,,2013-03-02 17:32:00,
2013-03-02 11:42:00,22.0,-99.9,-100.00,NNW,338,1.0,8.0,-999,0.00,,,0.00,,2013-03-02 17:42:00,
2013-03-02 11:52:00,22.0,-99.9,-100.00,NNE,23,5.0,10.0,-999,0.00,,,0.00,,2013-03-02 17:52:00,
2013-03-02 12:02:00,22.0,-99.9,-100.00,NE,45,1.0,10.0,-999,0.00,,,0.00,,2013-03-02 18:02:00,
2013-03-02 12:12:00,22.0,-99.9,-100.00,NE,45,1.0,10.0,-999,0.00,,,0.00,,2013-03-02 18:12:00,
2013-03-02 12:22:00,23.0,-99.9,-100.00,North,0,6.0,12.0,-999,0.00,,,0.00,,2013-03-02 18:22:00,
2013-03-02 12:32:00,24.0,-99.9,-100.00,North,0,5.0,12.0,-999,0.00,,,0.00,,2013-03-02 18:32:00,
2013-03-02 12:42:00,24.0,-99.9,-100.00,North,0,5.0,12.0,-999,0.00,,,0.00,,2013-03-02 18:42:00,
2013-03-02 12:52:00,24.0,-99.9,-100.00,North,0,2.0,8.0,-999,0.00,,,0.00,,2013-03-02 18:52:00,
2013-03-02 13:02:00,25.0,-99.9,-100.00,North,0,5.0,7.0,-999,0.00,,,0.00,,2013-03-02 19:02:00,
2013-03-02 13:12:00,25.0,-99.9,-100.00,North,0,5.0,7.0,-999,0.00,,,0.00,,2013-03-02 19:12:00,
2013-03-02 13:22:00,25.0,-99.9,-100.00,North,0,3.0,12.0,-999,0.00,,,0.00,,2013-03-02 19:22:00,
2013-03-02 13:32:00,26.0,-99.9,-100.00,North,0,6.0,9.0,-999,0.00,,,0.00,,2013-03-02 19:32:00,
2013-03-02 13:43:00,26.0,-99.9,-100.00,North,0,6.0,9.0,-999,0.00,,,0.00,,2013-03-02 19:43:00,
2013-03-02 13:52:00,28.0,-99.9,-100.00,North,0,6.0,10.0,-999,0.00,,,0.00,,2013-03-02 19:52:00,
2013-03-02 14:02:00,26.0,-99.9,-100.00,NNW,338,2.0,8.0,-999,0.00,,,0.00,,2013-03-02 20:02:00,
2013-03-02 14:12:00,26.0,-99.9,-100.00,NNW,338,2.0,8.0,-999,0.00,,,0.00,,2013-03-02 20:12:00,
2013-03-02 14:22:00,27.0,-99.9,-100.00,North,0,2.0,7.0,-999,0.00,,,0.00,,2013-03-02 20:22:00,
2013-03-02 14:32:00,28.0,-99.9,-100.00,North,0,2.0,8.0,-999,0.00,,,0.00,,2013-03-02 20:32:00,
2013-03-02 14:42:00,28.0,-99.9,-100.00,North,0,2.0,8.0,-999,0.00,,,0.00,,2013-03-02 20:42:00,
2013-03-02 14:53:00,28.0,-99.9,-100.00,North,0,2.0,7.0,-999,0.00,,,0.00,,2013-03-02 20:53:00,
2013-03-02 15:02:00,28.0,-99.9,-100.00,North,0,1.0,9.0,-999,0.00,,,0.00,,2013-03-02 21:02:00,
2013-03-02 15:12:00,28.0,-99.9,-100.00,North,0,1.0,9.0,-999,0.00,,,0.00,,2013-03-02 21:12:00,
2013-03-02 15:22:00,29.0,-99.9,-100.00,North,0,2.0,8.0,-999,0.00,,,0.00,,2013-03-02 21:22:00,
2013-03-02 15:32:00,27.0,-99.9,-100.00,NNE,23,5.0,10.0,-999,0.00,,,0.00,,2013-03-02 21:32:00,
2013-03-02 15:42:00,27.0,-99.9,-100.00,NNE,23,5.0,10.0,-999,0.00,,,0.00,,2013-03-02 21:42:00,
2013-03-02 15:53:00,27.0,-99.9,-100.00,NNE,23,6.0,7.0,-999,0.00,,,0.00,,2013-03-02 21:53:00,
2013-03-02 16:02:00,26.0,-99.9,-100.00,North,0,1.0,9.0,-999,0.00,,,0.00,,2013-03-02 22:02:00,
2013-03-02 16:12:00,26.0,-99.9,-100.00,North,0,1.0,9.0,-999,0.00,,,0.00,,2013-03-02 22:12:00,
2013-03-02 16:22:00,25.0,-99.9,-100.00,North,0,3.0,7.0,-999,0.00,,,0.00,,2013-03-02 22:22:00,
2013-03-02 16:32:00,25.0,-99.9,-100.00,North,0,3.0,5.0,-999,0.00,,,0.00,,2013-03-02 22:32:00,
2013-03-02 16:42:00,25.0,-99.9,-100.00,North,0,3.0,5.0,-999,0.00,,,0.00,,2013-03-02 22:42:00,
2013-03-02 16:52:00,25.0,-99.9,-100.00,NNW,338,1.0,7.0,-999,0.00,,,0.00,,2013-03-02 22:52:00,
2013-03-02 17:02:00,24.0,-99.9,-100.00,NNE,23,5.0,6.0,-999,0.00,,,0.00,,2013-03-02 23:02:00,
2013-03-02 17:12:00,23.0,-99.9,-100.00,North,0,1.0,3.0,-999,0.00,,,0.00,,2013-03-02 23:12:00,
2013-03-02 17:22:00,23.0,-99.9,-100.00,North,0,1.0,3.0,-999,0.00,,,0.00,,2013-03-02 23:22:00,
2013-03-02 17:32:00,23.0,-99.9,-100.00,North,0,2.0,3.0,-999,0.00,,,0.00,,2013-03-02 23:32:00,
2013-03-02 17:42:00,23.0,-99.9,-100.00,North,0,2.0,3.0,-999,0.00,,,0.00,,2013-03-02 23:42:00,
2013-03-02 17:52:00,22.0,-99.9,-100.00,North,0,2.0,6.0,-999,0.00,,,0.00,,2013-03-02 23:52:00,
2013-03-02 18:02:00,21.0,-99.9,-100.00,NNE,23,2.0,5.0,-999,0.00,,,0.00,,2013-03-03 00:02:00,
2013-03-02 18:11:00,21.0,-99.9,-100.00,NNE,23,2.0,5.0,-999,0.00,,,0.00,,2013-03-03 00:11:00,
2013-03-02 18:23:00,20.0,-99.9,-100.00,North,0,1.0,5.0,-999,0.00,,,0.00,,2013-03-03 00:23:00,
2013-03-02 18:32:00,18.0,-99.9,-100.00,NNW,338,1.0,3.0,-999,0.00,,,0.00,,2013-03-03 00:32:00,
2013-03-02 18:42:00,18.0,-99.9,-100.00,NNW,338,1.0,3.0,-999,0.00,,,0.00,,2013-03-03 00:42:00,
2013-03-02 18:53:00,17.0,-99.9,-100.00,North,0,0.0,3.0,-999,0.00,,,0.00,,2013-03-03 00:53:00,
2013-03-02 19:01:00,16.0,-99.9,-100.00,North,0,0.0,2.0,-999,0.00,,,0.00,,2013-03-03 01:01:00,
2013-03-02 19:12:00,16.0,-99.9,-100.00,North,0,0.0,2.0,-999,0.00,,,0.00,,2013-03-03 01:12:00,
2013-03-02 19:22:00,15.0,-99.9,-100.00,North,0,0.0,3.0,-999,0.00,,,0.00,,2013-03-03 01:22:00,
2013-03-02 19:32:00,16.0,-99.9,-100.00,North,0,1.0,3.0,-999,0.00,,,0.00,,2013-03-03 01:32:00,
2013-03-02 19:42:00,16.0,-99.9,-100.00,North,0,1.0,3.0,-999,0.00,,,0.00,,2013-03-03 01:42:00,
2013-03-02 19:52:00,16.0,-99.9,-100.00,North,0,0.0,6.0,-999,0.00,,,0.00,,2013-03-03 01:52:00,
2013-03-02 20:01:00,15.0,-99.9,-100.00,North,0,0.0,3.0,-999,0.00,,,0.00,,2013-03-03 02:01:00,
2013-03-02 20:11:00,15.0,-99.9,-100.00,North,0,2.0,3.0,-999,0.00,,,0.00,,2013-03-03 02:11:00,
2013-03-02 20:22:00,15.0,-99.9,-100.00,North,0,2.0,3.0,-999,0.00,,,0.00,,2013-03-03 02:22:00,
2013-03-02 20:32:00,14.0,-99.9,-100.00,North,0,1.0,3.0,-999,0.00,,,0.00,,2013-03-03 02:32:00,
2013-03-02 20:42:00,14.0,-99.9,-100.00,North,0,1.0,3.0,-999,0.00,,,0.00,,2013-03-03 02:42:00,
2013-03-02 20:52:00,14.0,-99.9,-100.00,NNE,23,1.0,5.0,-999,0.00,,,0.00,,2013-03-03 02:52:00,
2013-03-02 21:02:00,14.0,-99.9,-100.00,North,0,1.0,3.0,-999,0.00,,,0.00,,2013-03-03 03:02:00,
2013-03-02 21:11:00,14.0,-99.9,-100.00,North,0,1.0,3.0,-999,0.00,,,0.00,,2013-03-03 03:11:00,
2013-03-02 21:22:00,13.0,-99.9,-100.00,North,0,1.0,5.0,-999,0.00,,,0.00,,2013-03-03 03:22:00,
2013-03-02 21:32:00,13.0,-99.9,-100.00,NE,45,1.0,3.0,-999,0.00,,,0.00,,2013-03-03 03:32:00,
2013-03-02 21:42:00,13.0,-99.9,-100.00,NE,45,1.0,3.0,-999,0.00,,,0.00,,2013-03-03 03:42:00,
2013-03-02 21:52:00,13.0,-99.9,-100.00,North,0,2.0,3.0,-999,0.00,,,0.00,,2013-03-03 03:52:00,
2013-03-02 22:01:00,12.0,-99.9,-100.00,North,0,2.0,3.0,-999,0.00,,,0.00,,2013-03-03 04:01:00,
2013-03-02 22:11:00,12.0,-99.9,-100.00,North,0,2.0,3.0,-999,0.00,,,0.00,,2013-03-03 04:11:00,
2013-03-02 22:22:00,12.0,-99.9,-100.00,North,0,0.0,3.0,-999,0.00,,,0.00,,2013-03-03 04:22:00,
2013-03-02 22:32:00,11.0,-99.9,-100.00,North,0,1.0,3.0,-999,0.00,,,0.00,,2013-03-03 04:32:00,
2013-03-02 22:42:00,11.0,-99.9,-100.00,North,0,1.0,3.0,-999,0.00,,,0.00,,2013-03-03 04:42:00,
2013-03-02 22:52:00,11.0,-99.9,-100.00,NNE,23,1.0,3.0,-999,0.00,,,0.00,,2013-03-03 04:52:00,
2013-03-02 23:02:00,10.0,-99.9,-100.00,North,0,0.0,3.0,-999,0.00,,,0.00,,2013-03-03 05:02:00,
2013-03-02 23:12:00,10.0,-99.9,-100.00,North,0,0.0,3.0,-999,0.00,,,0.00,,2013-03-03 05:12:00,
2013-03-02 23:22:00,8.0,-99.9,-100.00,North,0,0.0,1.0,-999,0.00,,,0.00,,2013-03-03 05:22:00,
2013-03-02 23:32:00,7.0,-99.9,-100.00,North,0,0.0,1.0,-999,0.00,,,0.00,,2013-03-03 05:32:00,
2013-03-02 23:42:00,7.0,-99.9,-100.00,North,0,0.0,1.0,-999,0.00,,,0.00,,2013-03-03 05:42:00,
2013-03-02 23:52:00,5.0,-99.9,-100.00,North,0,0.0,0.0,-999,0.00,,,0.00,,2013-03-03 05:52:00,